Location: Stoke Bliss
(52.2667°N, 2.5167°W)
Time: 01:48:18
(UTC+00:00)

SPOT 3 Rocket - Pass Details

Date: 03 March 2021
Orbit: 778 x 795 km, 98.7° (Epoch: 11 April)

Event Time Altitude Azimuth Distance (km) Brightness Sun altitude
Exits shadow 20:18:41 54° 125° (SE) 961 3.6 -22.7°
Maximum altitude 20:19:42 68° 70° (ENE) 858 3.5 -22.9°
Drops below altitude 10° 20:24:54 10° 349° (NNW) 2,377 6.4 -23.6°
Sets 20:27:15 0° 347° (NNW) 3,312 7.3 -23.9°
